This demonstration page uses our WeatherBlox Daily Observations layout. Learn more.

Left ArrowRight Arrow

41.55636, -103.73856

Hourly Observations for December 18, 2020

Temp ( °F °C ) Dew Point ( °F °C ) Humidity (%) Winds ( mph kmh ) Pressure ( in mb ) Visibility ( mi km ) Precip ( " mm )
12:58 am 00:58 Mostly Clear 33 0.8 22 -5.4 64 64 Calm 29.77 1008 10 16 0.00 0.00
1:58 am 01:58 Partly Cloudy 27 -2.6 20 -6.9 73 73 SW 7 11 29.95 1014 10 16 0.00 0.00
2:58 am 02:58 Mostly Cloudy 29 -1.7 22 -5.5 76 76 WNW 8 13 29.95 1014 10 16 0.00 0.00
3:58 am 03:58 Mostly Clear 30 -0.9 23 -5.1 73 73 NW 13 20 29.96 1015 10 16 0.00 0.00
4:58 am 04:58 Mostly Cloudy 33 0.6 26 -3.6 74 74 NW 15 24 29.97 1015 10 16 0.00 0.00
5:58 am 05:58 Mostly Cloudy with Light Snow 33 0.7 28 -2 82 82 NW 15 24 30.00 1016 9 14 0.00 0.00
6:58 am 06:58 Cloudy with Light Snow 32 0.2 31 -0.4 96 96 NNW 16 26 30.04 1017 6 10 0.00 0.00
7:58 am 07:58 Cloudy with Light Rain/Snow 33 0.7 32 0 95 95 N 17 28 30.06 1018 10 16 0.00 0.00
8:58 am 08:58 Cloudy with Light Snow 32 0.2 31 -0.6 94 94 NNW 13 20 30.11 1020 5 8 0.00 0.00
9:58 am 09:58 Cloudy with Light Snow 32 0.1 30 -0.9 93 93 NNW 12 19 30.17 1022 3 5 0.00 0.00
10:58 am 10:58 Mostly Cloudy 34 1.2 31 -0.7 87 87 NW 14 22 30.11 1020 10 16 0.00 0.00
11:58 am 11:58 Mostly Cloudy 36 2.2 29 -1.8 75 75 NNW 15 24 30.10 1019 10 16 0.00 0.00
12:58 pm 12:58 Mostly Sunny 38 3.6 27 -2.9 63 63 NNW 21 33 30.10 1019 10 16 0.00 0.00
1:56 pm 13:56 Partly Cloudy 38 3.3 26 -3.6 61 61 NW 24 39 30.14 1021 10 16 0.00 0.00
2:56 pm 14:56 Partly Cloudy 38 3.1 24 -4.6 57 57 NW 18 30 30.15 1021 10 16 0.00 0.00
3:56 pm 15:56 Mostly Cloudy 35 1.7 23 -4.9 62 62 NW 14 22 30.18 1022 10 16 0.00 0.00
4:57 pm 16:57 Mostly Cloudy 33 0.4 22 -5.4 65 65 NNW 13 20 30.22 1023 10 16 0.00 0.00
5:56 pm 17:56 Cloudy 31 -0.5 23 -4.9 72 72 NW 6 9 30.23 1024 10 16 0.00 0.00
6:56 pm 18:56 Clear 26 -3.5 21 -6 83 83 W 6 9 30.25 1024 10 16 0.00 0.00
7:56 pm 19:56 Clear 25 -3.7 20 -6.8 79 79 SW 7 11 30.26 1025 10 16 0.00 0.00
8:56 pm 20:56 Mostly Cloudy 26 -3.4 20 -6.6 79 79 WSW 6 9 30.25 1024 10 16 0.00 0.00
9:56 pm 21:56 Clear 24 -4.4 19 -7.5 79 79 SSW 8 13 30.25 1024 10 16 0.00 0.00
10:56 pm 22:56 Clear 24 -4.5 18 -7.6 79 79 SSW 8 13 30.23 1024 10 16 0.00 0.00
11:56 pm 23:56 Clear 22 -5.3 17 -8.3 80 80 Calm 30.22 1023 10 16 0.00 0.00

Powered by AerisWeather